Previsão horária em Celinow

Hoje, 25 Julho, Domingo

Tempo Temperatura Precipitação Vento Pressão Humidade
00:00 +20°C° 0 mm 3 m/s 749 mmHg 68%
01:00 +19°C° 0 mm 3 m/s 749 mmHg 70%
02:00 +19°C° 0 mm 3 m/s 749 mmHg 70%
03:00 +19°C° 0 mm 3 m/s 749 mmHg 71%
04:00 +19°C° 0 mm 3 m/s 749 mmHg 71%
05:00 +20°C° 0 mm 3 m/s 749 mmHg 68%
06:00 +22°C° 0 mm 4 m/s 749 mmHg 65%
07:00 +23°C° 0 mm 4 m/s 749 mmHg 62%
08:00 +25°C° 0 mm 5 m/s 749 mmHg 57%
09:00 +27°C° 0 mm 5 m/s 749 mmHg 51%
10:00 +28°C° 0 mm 5 m/s 749 mmHg 46%
11:00 +29°C° 0 mm 5 m/s 749 mmHg 42%
12:00 +30°C° 0 mm 5 m/s 749 mmHg 38%
13:00 +32°C° 0 mm 5 m/s 749 mmHg 34%
14:00 +32°C° 0 mm 5 m/s 749 mmHg 35%
15:00 +32°C° 0 mm 5 m/s 748 mmHg 36%
16:00 +30°C° 0 mm 5 m/s 748 mmHg 38%
17:00 +29°C° 0 mm 5 m/s 748 mmHg 41%
18:00 +28°C° 0 mm 4 m/s 749 mmHg 44%
19:00 +26°C° 0 mm 4 m/s 749 mmHg 48%
20:00 +26°C° 0 mm 4 m/s 749 mmHg 49%
21:00 +25°C° 0 mm 5 m/s 749 mmHg 51%
22:00 +23°C° 0 mm 5 m/s 749 mmHg 52%
23:00 +23°C° 0 mm 4 m/s 749 mmHg 55%

Amanhã, 26 Julho, Segunda-feira

Tempo Temperatura Precipitação Vento Pressão Humidade
00:00 +22°C° 0 mm 4 m/s 749 mmHg 58%
01:00 +22°C° 0 mm 4 m/s 749 mmHg 61%
02:00 +22°C° 0 mm 4 m/s 749 mmHg 62%
03:00 +22°C° 0 mm 4 m/s 749 mmHg 64%
04:00 +22°C° 0 mm 5 m/s 748 mmHg 65%
05:00 +23°C° 0 mm 5 m/s 748 mmHg 63%
06:00 +23°C° 0 mm 5 m/s 748 mmHg 61%
07:00 +24°C° 0 mm 6 m/s 748 mmHg 59%
08:00 +27°C° 0 mm 6 m/s 748 mmHg 54%
09:00 +28°C° 0 mm 6 m/s 748 mmHg 49%
10:00 +30°C° 0 mm 6 m/s 748 mmHg 44%
11:00 +30°C° 0 mm 6 m/s 748 mmHg 43%
12:00 +32°C° 0 mm 6 m/s 748 mmHg 41%
13:00 +33°C° 0 mm 6 m/s 748 mmHg 39%
14:00 +32°C° 0 mm 6 m/s 748 mmHg 44%
15:00 +30°C° 0 mm 6 m/s 747 mmHg 48%
16:00 +29°C° 0 mm 6 m/s 747 mmHg 52%
17:00 +27°C° 1.9 mm 5 m/s 747 mmHg 65%
18:00 +25°C° 1.9 mm 5 m/s 747 mmHg 77%
19:00 +22°C° 1.9 mm 5 m/s 748 mmHg 90%
20:00 +21°C° 0.5 mm 5 m/s 748 mmHg 90%
21:00 +21°C° 0.5 mm 5 m/s 748 mmHg 91%
22:00 +21°C° 0.5 mm 5 m/s 748 mmHg 92%
23:00 +21°C° 0.8 mm 4 m/s 747 mmHg 93%

Depois de amanhã, 27 Julho, Terça-feira

Tempo Temperatura Precipitação Vento Pressão Humidade
00:00 +20°C° 0.8 mm 3 m/s 747 mmHg 94%
01:00 +20°C° 0.8 mm 3 m/s 747 mmHg 95%
02:00 +20°C° 0.2 mm 3 m/s 747 mmHg 95%
03:00 +20°C° 0.2 mm 3 m/s 747 mmHg 96%
04:00 +19°C° 0.2 mm 3 m/s 747 mmHg 96%
05:00 +21°C° 0 mm 3 m/s 747 mmHg 91%
06:00 +22°C° 0 mm 3 m/s 747 mmHg 87%
07:00 +24°C° 0 mm 3 m/s 748 mmHg 82%
08:00 +26°C° 0 mm 3 m/s 748 mmHg 74%
09:00 +27°C° 0 mm 3 m/s 748 mmHg 65%
10:00 +29°C° 0 mm 3 m/s 748 mmHg 57%
11:00 +30°C° 0 mm 3 m/s 748 mmHg 53%
12:00 +31°C° 0 mm 3 m/s 748 mmHg 48%
13:00 +33°C° 0 mm 3 m/s 747 mmHg 44%
14:00 +31°C° 0 mm 3 m/s 747 mmHg 46%
15:00 +31°C° 0 mm 3 m/s 747 mmHg 48%
16:00 +30°C° 0 mm 2 m/s 747 mmHg 49%
17:00 +29°C° 0 mm 2 m/s 747 mmHg 52%
18:00 +28°C° 0 mm 2 m/s 747 mmHg 55%
19:00 +27°C° 0 mm 1 m/s 747 mmHg 58%
20:00 +26°C° 0.1 mm 1 m/s 747 mmHg 64%
21:00 +25°C° 0.1 mm 1 m/s 747 mmHg 71%
22:00 +23°C° 0.1 mm 1 m/s 747 mmHg 77%
23:00 +23°C° 0.2 mm 1 m/s 747 mmHg 80%

28 Julho, Quarta-feira

Tempo Temperatura Precipitação Vento Pressão Humidade
00:00 +22°C° 0.2 mm 1 m/s 747 mmHg 82%
01:00 +22°C° 0.2 mm 1 m/s 747 mmHg 85%
02:00 +22°C° 0.2 mm 1 m/s 747 mmHg 85%
03:00 +22°C° 0.2 mm 1 m/s 747 mmHg 85%
04:00 +21°C° 0.2 mm 1 m/s 747 mmHg 86%
05:00 +22°C° 0 mm 1 m/s 747 mmHg 82%
06:00 +24°C° 0 mm 1 m/s 747 mmHg 77%
07:00 +25°C° 0 mm 1 m/s 747 mmHg 73%
08:00 +25°C° 0.2 mm 1 m/s 747 mmHg 71%
09:00 +25°C° 0.2 mm 1 m/s 747 mmHg 70%
10:00 +26°C° 0.2 mm 2 m/s 748 mmHg 68%
11:00 +25°C° 0.4 mm 3 m/s 748 mmHg 71%
12:00 +25°C° 0.4 mm 3 m/s 748 mmHg 74%
13:00 +23°C° 0.4 mm 4 m/s 748 mmHg 77%
14:00 +22°C° 1 mm 4 m/s 748 mmHg 82%
15:00 +21°C° 1 mm 4 m/s 748 mmHg 87%
16:00 +20°C° 1 mm 3 m/s 749 mmHg 93%
17:00 +20°C° 0.4 mm 3 m/s 749 mmHg 93%
18:00 +20°C° 0.4 mm 2 m/s 748 mmHg 94%
19:00 +20°C° 0.4 mm 2 m/s 748 mmHg 94%
20:00 +19°C° 0 mm 2 m/s 748 mmHg 93%
21:00 +18°C° 0 mm 2 m/s 749 mmHg 93%
22:00 +18°C° 0 mm 2 m/s 749 mmHg 92%
23:00 +18°C° 0 mm 2 m/s 749 mmHg 91%

29 Julho, Quinta-feira

Tempo Temperatura Precipitação Vento Pressão Humidade
00:00 +17°C° 0 mm 2 m/s 749 mmHg 90%
01:00 +17°C° 0 mm 2 m/s 748 mmHg 89%
02:00 +17°C° 0 mm 2 m/s 749 mmHg 90%
03:00 +17°C° 0 mm 2 m/s 749 mmHg 91%
04:00 +17°C° 0 mm 2 m/s 749 mmHg 91%
05:00 +18°C° 0 mm 3 m/s 749 mmHg 86%
06:00 +20°C° 0 mm 3 m/s 749 mmHg 81%
07:00 +21°C° 0 mm 3 m/s 749 mmHg 76%
08:00 +24°C° 0 mm 3 m/s 749 mmHg 68%
09:00 +25°C° 0 mm 3 m/s 749 mmHg 60%
10:00 +27°C° 0 mm 3 m/s 749 mmHg 52%
11:00 +27°C° 0 mm 3 m/s 749 mmHg 49%
12:00 +28°C° 0 mm 4 m/s 749 mmHg 46%
13:00 +29°C° 0 mm 4 m/s 749 mmHg 43%
14:00 +28°C° 0 mm 4 m/s 749 mmHg 44%
15:00 +28°C° 0 mm 3 m/s 749 mmHg 46%
16:00 +28°C° 0 mm 3 m/s 748 mmHg 47%
17:00 +27°C° 0 mm 2 m/s 748 mmHg 50%
18:00 +26°C° 0 mm 1 m/s 748 mmHg 53%
19:00 +24°C° 0 mm 1 m/s 748 mmHg 56%
20:00 +24°C° 0 mm 1 m/s 748 mmHg 58%
21:00 +23°C° 0 mm 2 m/s 748 mmHg 60%
22:00 +21°C° 0 mm 2 m/s 748 mmHg 61%
23:00 +21°C° 0 mm 3 m/s 748 mmHg 64%

30 Julho, Sexta-feira

Tempo Temperatura Precipitação Vento Pressão Humidade
00:00 +20°C° 0 mm 3 m/s 748 mmHg 66%
01:00 +20°C° 0 mm 3 m/s 748 mmHg 69%
02:00 +20°C° 0 mm 3 m/s 747 mmHg 68%
03:00 +20°C° 0 mm 3 m/s 747 mmHg 68%
04:00 +20°C° 0 mm 3 m/s 747 mmHg 68%
05:00 +21°C° 0 mm 3 m/s 747 mmHg 66%
06:00 +24°C° 0 mm 3 m/s 747 mmHg 64%
07:00 +25°C° 0 mm 3 m/s 747 mmHg 61%
08:00 +27°C° 0 mm 4 m/s 747 mmHg 57%
09:00 +28°C° 0 mm 4 m/s 747 mmHg 54%
10:00 +30°C° 0 mm 4 m/s 747 mmHg 50%
11:00 +30°C° 0 mm 4 m/s 747 mmHg 47%
12:00 +32°C° 0 mm 4 m/s 747 mmHg 45%
13:00 +33°C° 0 mm 4 m/s 746 mmHg 42%
14:00 +33°C° 0 mm 4 m/s 746 mmHg 44%
15:00 +32°C° 0 mm 4 m/s 746 mmHg 45%
16:00 +32°C° 0 mm 4 m/s 746 mmHg 46%
17:00 +29°C° 0 mm 3 m/s 746 mmHg 53%
18:00 +28°C° 0 mm 2 m/s 746 mmHg 59%
19:00 +26°C° 0 mm 2 m/s 746 mmHg 66%
20:00 +25°C° 0.7 mm 2 m/s 746 mmHg 73%
21:00 +24°C° 0.7 mm 1 m/s 747 mmHg 80%
22:00 +22°C° 0.7 mm 1 m/s 747 mmHg 88%
23:00 +22°C° 0.5 mm 1 m/s 747 mmHg 90%
Mostrar mais

Necessitamos do seu Consentimento

A Meteoprog e os seus Fornecedores de Serviços podem armazenar e aceder a dados pessoais como cookies, identificadores do dispositivo ou outras tecnologias semelhantes existentes no seu dispositivo e processar estes dados para personalizar conteúdos e anúncios, assim como funcionalidades nas redes sociais e análise de tráfego.

  • Armazenar e/ou aceder a informações no seu dispositivo

    Os cookies, identificadores do dispositivo ou outras informações podem ser armazenados ou acedidos no seu dispositivo, para os fins acima indicados.

  • Anúncios e conteúdos personalizados, medição de anúncios e conteúdos, dados sobre o público-alvo e desenvolvimento de produtos

    Os anúncios e os conteúdos podem ser personalizados com base num perfil. Podem ser adicionados dados adicionais para uma maior personalização dos anúncios e dos conteúdos. A eficácia dos anúncios e dos conteúdos pode ser medida. Podem ser obtidas informações sobre o público que visualizou os anúncios e os conteúdos. Estes dados podem ser usados para desenvolver ou melhorar sistemas, softwares ou a experiência do utilizador.

Ao clicar em "Eu concordo”, permitirá o uso de cookies, identificadores do dispositivo e web beacons mencionados ou outras tecnologias semelhantes. As configurações do navegador do seu dispositivo podem ser alteradas.

Para certos fins, podem ser invocados interesses legítimos ao invés de consentimento. Pode ler mais informação sobre este assunto na nossa Política de Privacidade e Cookies.